GFSSE_850_temp_000.txt.gz
Temp
16 16 17 17 18 17 17 17 17 17 17 16 16 16 16 16 15 15 15 15 15 14 14 15 16 15 16 16 16 17 17 17 16 16 17 17 17 16 15 15 14 14 15
15 16 16 17 17 17 17 17 17 17 16 16 16 15 15 16 16 16 15 13 13 13 13 13 14 15 15 16 16 16 16 16 16 16 16 16 16 16 15 14 14 14 14
15 16 17 17 17 17 16 16 16 15 16 16 16 16 15 15 15 16 16 16 14 14 13 14 14 14 15 15 16 16 16 15 16 16 15 15 15 15 15 15 13 13 13
15 16 16 16 16 16 16 16 16 15 15 15 15 16 15 15 15 15 16 16 13 14 17 16 15 13 14 14 14 15 15 15 15 15 15 14 14 14 15 15 14 13 13
15 15 16 17 16 17 16 16 16 16 15 15 15 15 15 14 14 14 15 14 14 14 14 13 13 13 13 13 14 14 14 14 14 14 15 14 14 14 14 15 15 14 13
15 17 17 17 18 17 17 16 16 17 16 16 15 14 14 14 14 14 14 14 14 14 13 13 14 13 12 12 13 13 14 14 14 14 14 14 15 14 14 14 14 14 13
18 18 17 17 17 16 16 16 15 15 15 16 16 16 16 15 15 14 14 13 13 13 13 14 14 12 11 13 13 14 13 14 14 14 14 14 14 14 13 13 14 13 13
16 16 17 16 16 15 15 15 15 15 15 15 15 15 15 15 15 15 14 14 15 14 14 13 13 12 12 13 13 14 13 13 14 14 14 14 14 14 14 14 14 13 13
16 16 15 15 15 15 14 14 15 15 15 15 15 15 14 14 15 15 15 14 14 15 14 13 12 11 12 13 14 13 12 13 14 14 14 13 14 13 13 13 13 14 14
16 16 16 16 15 14 14 14 14 14 14 14 14 14 14 14 14 13 13 13 13 13 13 12 11 11 11 11 11 13 13 13 13 13 13 13 12 13 13 13 13 13 13
17 16 15 15 15 14 14 14 14 13 13 14 14 14 13 12 13 13 13 12 12 12 12 12 12 12 11 11 11 11 12 13 13 13 12 13 14 13 13 13 13 13 12
17 16 15 16 15 15 14 14 13 13 12 12 12 13 11 12 13 13 13 12 13 13 12 11 11 12 12 11 10 10 10 11 12 11 12 13 13 12 13 13 13 12 12
17 15 15 15 15 14 13 14 13 13 13 12 12 12 13 13 14 13 14 12 13 12 12 12 12 12 11 11 11 10 10 10 10 11 12 11 12 13 13 13 13 13 12
17 16 15 16 16 15 14 14 13 13 12 12 13 14 13 13 13 14 14 13 13 13 12 13 13 12 11 10 11 10 10 10 10 10 11 11 11 12 12 13 12 13 12
16 16 15 16 16 15 14 14 14 13 14 13 13 14 13 11 12 12 13 12 12 12 11 11 12 11 11 10 12 10 10 10 11 11 11 11 11 11 11 11 11 13 13
16 15 15 15 14 14 12 13 14 14 14 13 12 13 12 12 12 10 9 9 10 11 10 10 9 9 9 10 9 10 9 10 9 10 10 11 11 11 11 11 10 11 12
16 15 14 14 13 13 12 13 12 12 11 11 11 12 12 12 12 11 10 8 8 10 10 10 10 10 9 9 9 9 9 9 9 9 9 10 10 12 11 11 11 10 11
16 15 14 13 13 14 12 12 12 11 11 10 9 11 11 11 11 10 8 9 9 7 7 8 9 9 9 9 9 9 9 9 9 9 9 10 10 10 10 11 10 10 11
15 15 14 13 13 12 12 12 11 11 11 10 9 9 10 10 10 9 8 8 8 7 7 7 7 7 7 8 8 7 9 9 9 9 9 9 10 10 10 11 11 11 11
15 14 13 12 12 11 11 11 10 10 10 10 9 9 8 8 9 9 8 8 7 7 7 6 6 6 6 6 6 6 7 8 9 9 9 9 9 10 10 10 10 11 10
14 13 12 12 11 11 10 10 10 10 10 10 9 9 8 8 8 8 8 7 7 7 7 6 6 5 6 6 6 6 6 7 7 8 9 9 9 9 9 9 10 9 9
14 13 12 12 11 11 10 10 10 10 10 10 9 9 8 8 7 7 7 7 7 6 6 6 6 6 5 5 5 5 6 6 8 7 7 8 8 8 9 9 9 8 8
14 13 12 12 12 11 11 10 10 10 10 10 9 9 8 8 7 7 7 7 6 6 6 6 6 6 5 5 5 5 5 5 6 6 6 7 7 7 7 7 9 8 8
15 14 13 12 12 12 11 11 10 10 10 9 10 10 9 8 7 7 7 6 6 6 5 5 5 5 5 5 4 5 5 5 5 5 5 6 6 7 7 7 8 8 8
15 14 13 12 12 12 11 11 10 10 10 9 9 9 9 8 8 7 6 6 5 5 5 5 5 5 4 4 4 4 4 4 4 4 5 5 6 6 6 7 7 7 7
15 14 13 12 12 11 11 11 11 10 9 9 8 8 8 7 7 6 5 5 5 4 4 4 3 3 3 3 3 3 3 3 3 4 4 5 5 5 5 6 6 6 6

GFSSE_850_temp_003.txt.gz
Temp
16 17 17 16 16 16 17 16 16 16 16 16 16 16 15 15 17 17 17 17 17 16 15 14 14 14 14 15 16 16 16 16 16 16 15 14 15 15 15 16 16 15 15
16 16 17 17 17 17 16 16 16 16 16 16 16 15 15 15 16 16 16 17 17 16 16 16 14 14 15 14 15 15 15 16 16 16 16 16 16 15 16 16 15 14 14
15 15 17 17 17 17 17 16 16 16 16 16 15 15 15 15 15 15 15 15 17 17 17 17 16 13 13 13 14 14 14 15 15 15 16 16 16 16 16 15 15 15 14
15 15 17 17 18 18 18 18 17 16 16 16 16 16 15 15 15 15 15 16 17 17 15 14 14 12 14 13 12 13 14 14 14 14 15 14 15 14 14 15 14 14 14
16 17 17 17 17 17 17 17 17 17 17 16 16 16 15 15 15 15 15 16 16 15 14 14 14 14 16 13 13 13 13 13 14 14 14 14 13 14 14 14 14 14 14
17 18 17 17 18 17 17 17 17 17 17 16 16 16 16 16 16 15 16 16 15 14 14 13 13 14 15 14 15 13 12 13 14 14 14 14 14 14 14 14 14 14 13
17 17 17 16 17 17 17 17 16 16 16 16 16 15 15 16 16 15 15 15 15 14 13 13 13 13 13 15 15 14 13 13 14 14 15 14 13 14 14 14 13 14 13
17 16 16 16 16 16 16 16 16 16 15 15 15 15 15 15 14 14 14 14 13 13 13 14 15 15 14 14 14 12 13 13 13 13 14 13 13 13 14 14 13 14 13
16 16 16 16 15 16 15 14 15 15 15 15 14 14 14 14 14 13 13 13 13 13 13 13 14 14 13 13 12 12 12 12 13 13 14 13 13 13 13 14 13 13 13
16 16 15 15 15 16 15 14 14 14 14 14 14 13 14 14 14 14 13 12 12 12 12 12 12 13 13 12 12 12 12 12 12 12 13 13 13 13 13 13 13 13 13
17 17 16 15 15 16 15 14 14 14 14 13 13 13 13 14 14 14 14 13 13 12 12 11 11 11 11 12 12 12 12 12 11 12 12 13 13 13 13 13 13 13 13
17 18 18 17 16 15 13 13 14 13 13 14 14 14 14 15 14 15 14 14 14 14 14 13 11 11 11 11 12 12 12 12 12 12 11 12 12 12 13 13 13 13 13
17 17 17 17 17 15 14 13 13 13 13 12 13 14 13 13 14 14 15 14 13 13 12 11 11 11 11 10 11 11 11 11 12 12 12 11 11 12 12 13 13 13 13
17 17 17 17 16 15 15 14 13 13 13 14 14 14 14 14 14 14 14 13 13 13 12 12 11 11 11 11 11 11 10 11 12 12 12 12 12 11 11 11 12 13 12
17 16 16 16 16 15 15 14 13 13 13 13 13 13 13 13 13 13 13 12 12 12 12 12 11 12 11 11 10 10 10 10 10 10 10 11 11 11 11 11 11 11 12
17 17 16 16 16 16 15 15 14 13 13 13 13 13 12 12 11 11 11 11 11 11 11 11 11 10 11 11 11 10 9 9 10 10 10 11 11 11 11 11 11 11 11
17 17 16 16 15 15 14 14 14 13 13 13 13 13 12 12 11 11 10 10 10 10 10 10 10 10 10 10 10 10 11 11 10 10 9 9 10 10 11 10 11 11 11
17 17 16 15 15 14 14 13 13 13 12 12 12 12 11 11 11 10 10 10 9 9 9 9 9 9 9 9 9 9 9 9 9 9 9 10 10 10 11 10 10 10 11
18 17 16 15 14 14 13 12 11 11 11 11 10 11 11 10 10 9 8 9 8 8 8 8 8 8 8 8 7 7 8 8 8 9 9 9 9 9 10 10 10 10 10
17 16 15 14 14 13 13 12 11 11 11 10 10 9 10 10 10 9 8 8 8 7 7 7 7 7 7 6 6 6 6 6 7 8 8 9 8 8 9 10 10 10 11
17 16 15 14 13 13 12 12 11 11 11 11 10 10 9 9 9 9 8 7 7 7 7 7 6 6 7 7 6 6 6 6 6 7 7 7 7 8 8 9 9 10 10
16 15 15 14 13 12 12 12 11 11 10 10 10 9 9 9 9 8 8 8 7 7 7 7 6 6 6 6 5 5 5 5 6 6 7 7 7 7 7 8 9 9 9
15 15 15 14 13 12 12 12 11 10 10 10 10 9 9 9 9 8 8 7 7 7 6 6 6 6 5 5 5 5 5 5 5 5 5 5 6 6 6 7 8 7 7
15 15 14 14 13 13 12 12 11 11 11 10 10 10 10 9 9 8 7 7 7 6 6 6 6 5 5 5 5 5 5 4 4 4 4 4 5 5 6 7 7 7 8
15 14 14 14 14 13 13 12 11 11 11 11 10 10 9 9 9 7 7 7 6 6 5 5 5 5 5 4 4 4 4 4 4 3 3 3 4 4 5 6 6 6 6
15 14 14 13 13 13 13 13 12 12 11 11 10 10 9 8 8 7 7 6 6 5 5 4 3 3 3 3 3 3 3 2 2 2 2 2 3 3 4 5 5 5 6

GFSSE_850_temp_006.txt.gz
Temp
15 16 16 17 18 18 17 17 17 16 17 17 17 17 16 16 16 16 16 17 17 17 17 17 18 16 16 15 14 14 14 15 15 15 15 15 15 15 15 15 14 15 16
17 16 17 17 17 17 17 16 17 16 17 16 16 17 17 16 16 16 17 16 17 17 17 18 19 18 16 15 14 13 14 14 14 14 14 15 14 14 15 15 15 14 15
16 16 17 17 17 17 17 17 17 16 16 16 16 16 16 16 16 16 16 16 15 16 16 17 19 16 15 16 15 14 13 13 14 14 14 14 14 14 14 14 14 15 14
17 16 17 17 18 18 18 17 17 17 16 16 17 17 16 15 15 15 15 15 15 15 15 17 16 15 15 15 15 14 15 14 14 14 14 14 13 13 14 14 14 14 14
15 16 16 17 17 17 18 17 17 17 17 17 16 16 16 15 15 15 15 14 15 14 15 15 15 14 15 15 17 15 14 15 15 14 14 14 14 14 14 14 14 14 14
16 16 16 17 17 17 17 17 16 16 16 16 16 16 16 15 15 15 15 15 15 14 14 14 14 14 14 15 15 15 15 15 14 15 14 14 14 14 14 14 14 14 14
16 16 17 16 16 16 16 15 16 16 16 16 16 16 15 15 15 15 14 14 14 14 14 14 14 13 14 14 15 15 14 14 14 14 14 13 13 14 13 14 14 14 14
16 16 16 16 16 16 16 16 16 16 16 16 15 15 15 15 15 14 14 14 13 13 13 13 14 14 14 13 14 15 14 13 13 13 13 13 13 13 14 13 14 14 14
16 15 15 15 15 15 15 15 15 15 15 15 15 15 15 15 15 15 15 14 14 13 13 13 13 14 13 12 13 13 13 14 14 12 12 12 13 13 13 13 13 14 14
16 16 16 15 16 15 15 15 14 14 14 14 14 15 15 15 15 15 15 15 14 13 13 12 12 12 12 12 12 13 13 13 12 12 13 13 13 13 13 13 13 13 13
16 16 16 16 16 16 15 15 14 14 14 14 14 14 14 14 14 14 14 14 13 13 13 12 11 11 11 11 11 12 12 12 12 12 13 12 12 13 13 13 13 13 13
16 16 16 17 16 15 14 14 13 13 14 14 14 14 14 14 14 14 14 14 14 14 13 13 12 11 11 11 11 11 11 11 11 11 12 12 12 12 12 13 13 13 13
17 17 17 17 17 16 15 14 13 13 13 13 14 13 13 14 14 13 13 13 13 13 12 11 11 11 10 10 10 11 11 11 11 11 11 11 12 12 12 11 12 12 12
17 17 17 17 16 16 15 14 13 13 13 13 12 12 12 13 13 13 14 13 13 13 13 12 11 11 11 10 10 10 10 10 10 11 10 10 11 11 11 12 12 11 12
17 17 17 17 16 15 15 14 13 13 13 13 13 13 13 13 13 13 13 13 13 12 12 12 12 11 11 11 11 10 10 9 9 10 10 10 10 10 11 10 11 11 11
18 18 17 16 16 16 15 14 13 12 12 12 12 12 12 13 12 12 12 12 12 12 12 11 11 11 11 11 11 11 10 10 9 9 9 10 11 11 11 11 10 10 11
18 18 17 16 16 16 15 14 14 13 13 13 13 12 12 12 12 11 11 11 11 11 11 10 10 10 10 10 10 10 10 9 9 9 8 8 9 10 10 10 10 10 10
18 17 17 16 16 15 15 14 13 13 12 12 12 12 12 11 11 11 10 9 9 9 10 10 10 9 9 9 10 9 10 9 9 9 9 9 9 9 10 10 9 10 10
18 17 16 16 15 15 14 13 13 12 12 11 11 11 11 11 10 10 10 9 8 8 9 9 8 8 8 8 8 8 8 8 8 8 8 8 8 9 9 9 9 9 9
17 16 16 16 15 15 14 13 13 12 12 11 10 10 11 10 9 9 9 9 8 8 8 8 8 7 8 7 7 7 7 7 7 7 7 7 7 7 7 8 9 10 9
17 17 16 15 15 14 14 14 13 13 12 11 11 10 10 9 10 9 9 8 8 7 7 7 7 7 7 6 6 6 6 6 6 6 6 6 6 6 6 7 6 7 8
17 16 16 15 14 14 14 13 13 12 12 11 11 10 10 9 9 9 9 9 8 7 7 7 7 6 6 6 6 5 5 5 5 5 5 5 6 6 6 6 6 7 7
16 15 15 14 14 14 13 13 12 12 12 12 11 11 10 10 9 9 9 9 8 7 7 7 6 6 6 5 5 4 4 4 4 4 4 4 4 5 5 5 6 6 6
15 15 14 14 14 13 13 13 12 12 12 12 12 11 10 10 10 9 8 8 7 7 6 6 6 5 5 5 5 4 4 3 3 2 3 3 3 3 4 4 5 5 6
15 14 14 14 13 13 12 12 12 12 12 11 11 11 11 10 10 9 8 8 7 7 6 5 5 4 4 4 4 4 3 3 3 2 1 2 2 2 2 3 4 5 5
14 13 13 12 12 12 12 12 12 11 11 11 11 11 11 10 10 9 8 7 7 6 6 5 3 3 3 3 2 2 2 2 1 1 1 1 1 1 2 2 3 3 4

GFSSE_850_temp_009.txt.gz
Temp
16 16 15 15 16 15 17 17 17 18 17 16 16 17 17 16 16 16 16 16 16 16 16 16 16 16 17 17 17 17 16 15 14 15 15 15 15 15 15 15 15 15 15
16 16 15 15 16 17 17 17 17 17 17 16 16 16 16 16 16 16 15 15 15 16 16 15 15 16 16 17 16 16 17 16 15 15 15 15 15 15 15 15 15 15 14
16 17 16 17 16 17 17 17 17 17 16 16 16 16 15 15 15 15 15 15 15 15 15 16 15 15 15 16 16 16 16 17 16 16 14 15 15 15 14 14 14 14 14
15 16 16 17 17 16 17 16 16 16 16 16 17 16 15 15 14 14 14 14 14 15 15 15 14 14 14 15 16 16 17 17 14 14 15 14 14 14 14 14 14 14 14
16 16 16 17 17 17 17 18 17 17 17 16 16 15 15 15 14 14 14 14 14 14 14 14 13 14 14 14 15 15 15 15 15 13 14 14 13 14 14 13 14 14 14
16 16 17 17 17 17 17 17 17 17 17 17 17 17 16 16 15 14 14 14 14 14 14 14 14 14 14 15 15 15 14 15 13 13 13 13 13 13 13 14 14 14 14
17 16 16 16 17 17 17 17 16 16 16 16 16 17 16 16 15 15 15 15 15 14 13 14 14 14 14 15 14 13 14 13 14 13 13 13 13 13 13 14 13 13 14
17 17 16 16 16 16 17 16 16 16 16 16 16 16 16 15 15 15 15 14 14 14 14 13 14 14 15 14 14 13 13 13 12 13 12 13 13 13 13 13 13 13 13
17 17 17 17 17 17 17 16 16 15 15 15 15 15 15 15 15 14 14 14 13 13 13 13 13 13 13 14 14 13 12 12 12 12 12 13 13 13 13 13 13 13 13
16 17 17 17 17 17 16 15 14 14 14 14 15 15 15 15 15 15 15 14 14 13 13 13 12 12 12 12 12 12 12 12 12 12 13 13 13 13 13 13 13 13 13
16 16 16 16 16 16 16 15 14 13 14 14 14 14 14 14 14 14 14 14 14 13 13 12 12 11 11 11 10 11 11 11 11 12 12 12 12 13 13 13 13 13 12
16 16 16 16 16 16 15 15 13 13 13 13 13 14 14 14 14 14 14 14 14 14 13 13 11 11 10 10 10 11 11 11 11 11 11 11 11 11 12 12 12 12 12
16 16 16 16 16 16 15 14 14 13 13 13 13 13 14 14 14 14 14 14 14 14 14 13 13 12 11 11 10 11 11 11 11 11 11 11 10 10 11 12 12 12 12
16 16 17 16 16 16 16 15 14 13 13 13 13 13 13 13 14 14 13 14 13 13 13 13 13 13 12 11 11 11 11 10 11 10 10 10 10 9 10 11 11 11 12
16 17 17 17 17 16 16 15 14 13 13 12 12 12 12 12 13 13 13 13 13 12 12 12 12 12 12 12 11 11 11 10 10 10 10 10 10 10 10 10 10 11 11
17 17 17 17 16 16 15 15 14 13 12 12 11 11 11 12 12 12 12 12 12 11 11 11 11 11 11 11 11 11 10 10 10 10 9 10 10 10 10 10 10 11 10
18 18 17 17 16 15 15 14 14 13 12 12 12 12 12 11 11 11 11 11 11 10 10 10 10 10 10 10 10 10 10 10 9 9 9 8 9 10 10 9 9 9 10
18 18 17 16 15 15 15 14 14 13 13 12 12 12 11 11 11 11 10 10 10 10 10 9 9 9 9 9 9 9 9 9 9 8 8 7 7 8 9 10 9 9 9
17 17 17 16 15 15 15 14 14 14 13 12 12 12 11 10 10 10 10 10 9 9 9 9 9 9 9 9 9 9 9 9 8 7 7 7 7 7 7 8 8 8 8
17 17 16 16 15 15 14 14 14 14 13 13 12 12 11 11 10 10 9 9 9 9 9 9 9 9 8 8 8 8 8 8 8 7 7 6 6 6 6 6 6 7 7
17 16 16 15 15 14 14 14 13 13 13 12 12 12 11 11 11 11 10 9 9 9 9 8 8 8 7 7 7 7 8 8 8 7 7 6 6 6 6 6 6 6 6
16 16 15 15 15 14 14 13 13 13 12 12 12 12 11 11 11 11 10 10 9 9 9 8 8 8 7 7 6 6 6 6 7 7 6 6 5 4 4 5 5 6 6
16 15 15 15 14 14 13 13 12 12 12 12 12 12 12 11 11 10 10 10 9 9 9 8 8 7 7 6 6 5 4 4 5 5 5 5 4 4 4 3 4 4 5
15 15 15 14 14 13 13 12 12 12 11 11 11 11 11 11 11 10 10 10 9 8 8 7 7 6 6 6 5 4 4 3 2 3 4 3 3 3 3 3 3 3 4
15 15 14 14 13 12 12 12 12 12 12 11 11 10 11 11 10 9 9 9 9 7 7 6 5 4 4 5 4 3 3 2 2 2 1 3 3 2 2 2 1 2 2
14 14 13 12 12 12 11 12 12 11 11 11 11 10 10 10 10 10 9 8 7 6 5 4 3 3 3 2 2 1 0 -0 -0 1 1 1 1 1 1 1 0 1 1

GFSSE_850_temp_012.txt.gz
Temp
15 15 15 15 17 16 16 16 16 16 17 17 17 16 15 15 15 16 16 15 15 15 15 15 16 16 16 16 16 16 16 16 16 17 17 16 16 16 16 16 16 15 15
15 15 15 15 16 16 16 16 16 16 16 16 16 15 15 15 15 15 15 14 15 15 15 15 15 15 16 16 16 16 17 17 17 16 17 17 16 15 15 16 16 15 15
15 16 15 15 15 16 16 16 16 16 16 16 16 16 15 15 15 14 14 14 15 15 15 15 15 15 15 15 15 15 15 16 16 15 14 15 16 15 15 15 15 16 15
16 16 16 16 16 16 16 17 17 17 17 17 17 17 15 14 14 14 14 14 14 15 15 15 14 14 14 14 14 14 14 14 14 14 15 14 15 14 14 14 14 15 15
16 16 16 17 17 17 17 18 17 17 17 17 17 16 15 15 14 14 13 13 14 14 14 14 14 14 14 13 13 13 13 13 13 13 14 13 14 14 13 13 14 14 14
16 17 17 17 17 18 18 18 18 18 18 17 17 16 15 15 14 14 14 14 14 14 13 13 13 13 13 13 13 13 13 13 13 13 14 14 13 14 14 13 13 13 14
18 17 17 17 18 18 18 18 17 17 16 16 16 16 16 15 15 15 15 14 14 14 14 13 13 13 13 13 12 12 13 13 14 13 13 13 13 13 13 14 14 13 13
17 18 18 17 17 16 16 16 15 15 15 15 15 15 14 14 15 15 15 15 14 14 14 13 13 13 13 13 13 13 13 12 13 13 12 13 12 13 13 13 13 13 13
17 17 17 17 16 16 16 16 15 14 14 14 14 14 14 14 14 14 14 14 14 14 14 13 13 13 13 13 12 12 12 12 12 12 12 12 13 12 12 13 13 13 13
17 16 16 16 16 17 16 16 15 14 14 14 14 14 14 14 14 14 14 15 14 14 14 13 13 13 13 12 12 11 11 11 11 11 11 11 12 12 12 12 13 13 13
16 16 16 16 16 17 16 16 15 14 14 14 14 14 14 14 14 14 14 14 14 14 14 14 14 13 13 12 11 11 11 11 11 11 11 11 12 12 12 12 12 13 13
16 16 16 16 16 16 16 16 15 15 14 14 14 14 14 14 14 14 14 14 14 14 14 13 13 13 13 12 12 11 11 11 11 11 11 11 11 12 12 12 12 12 12
17 16 16 16 16 16 16 15 15 15 14 14 13 13 13 13 13 13 14 13 13 13 13 13 13 13 12 12 11 11 11 11 11 11 10 10 10 10 11 11 11 11 11
17 16 16 16 16 16 16 15 15 15 14 13 13 13 13 13 13 13 13 13 13 13 13 13 12 12 12 11 11 11 11 11 11 11 11 10 10 10 10 10 10 11 11
17 17 16 17 17 16 15 15 15 14 14 13 13 12 12 12 12 12 12 12 12 12 12 12 12 11 11 11 11 11 11 11 11 11 11 10 9 9 10 10 11 11 10
17 17 16 16 16 16 15 14 14 14 13 13 13 12 11 11 11 11 11 11 11 11 11 11 11 10 11 11 11 11 11 11 11 10 10 10 10 10 9 9 10 11 10
18 17 16 16 15 15 15 14 14 14 13 13 12 12 11 11 11 11 11 11 11 10 10 10 10 10 10 10 10 10 10 10 10 9 9 9 9 9 10 9 9 9 9
18 17 16 16 15 15 15 14 14 13 13 13 13 12 12 11 11 11 11 10 10 10 10 10 9 9 9 9 9 9 9 9 9 9 8 8 8 8 8 8 8 8 9
17 16 16 16 15 15 15 14 14 14 13 13 13 12 12 12 11 11 11 10 10 10 10 9 9 9 9 9 9 9 9 9 8 8 8 8 8 7 7 7 7 7 7
17 16 16 15 15 15 14 14 14 13 13 13 12 12 12 12 12 11 11 11 10 10 10 9 9 9 9 8 8 8 8 8 8 8 8 8 7 7 7 6 6 6 6
16 16 16 15 15 15 14 14 13 13 12 12 12 12 12 12 11 11 11 11 10 10 10 9 9 9 8 8 8 8 8 8 7 7 8 7 6 6 6 6 6 5 5
16 16 16 15 15 14 14 13 13 12 12 12 12 12 12 11 11 11 10 11 11 10 10 9 9 9 9 8 7 7 7 7 7 7 7 7 6 5 5 5 6 6 5
16 16 15 15 14 14 13 13 12 12 12 12 11 11 11 11 10 10 10 9 10 10 10 9 9 9 8 8 7 6 6 6 6 6 6 6 6 5 4 4 4 5 5
16 15 15 14 14 13 12 12 12 11 11 11 11 10 10 10 10 10 10 9 9 8 9 9 8 8 7 6 6 5 5 5 4 4 4 4 4 4 3 3 3 3 4
15 14 14 13 12 12 12 11 11 11 10 10 10 10 9 9 9 9 9 9 9 8 7 7 6 6 5 4 4 3 2 2 2 1 1 2 2 4 3 2 2 2 2
13 12 12 12 12 12 11 11 11 10 9 9 9 9 9 8 8 8 8 8 8 7 4 3 4 4 3 3 2 0 -0 -1 -1 -1 -1 -1 1 3 2 1 0 1 1

GFSSE_850_temp_015.txt.gz
Temp
15 15 15 15 16 16 16 16 16 17 16 16 16 16 16 16 16 15 14 14 14 15 15 15 15 15 15 16 16 16 15 15 15 15 16 16 16 16 17 15 16 16 16
16 16 15 15 15 16 15 16 16 16 17 16 16 16 16 16 15 14 15 15 15 14 14 15 14 15 15 15 15 15 15 15 15 15 15 15 15 15 16 15 15 15 15
16 16 16 16 16 16 16 16 16 17 16 16 16 16 15 15 14 14 15 14 14 14 14 14 15 15 14 14 14 14 14 14 14 14 14 14 14 15 15 15 15 15 14
16 17 17 17 17 17 17 17 17 17 16 16 17 16 15 14 14 14 14 14 14 14 14 14 14 14 13 14 14 13 13 13 14 13 14 14 14 13 14 15 14 14 14
17 17 17 17 17 17 17 17 17 17 17 17 16 16 16 15 14 14 13 13 13 14 14 14 14 13 13 13 13 13 13 13 13 14 13 13 14 14 13 14 14 14 13
17 17 17 17 17 17 17 17 17 16 16 16 15 15 15 14 14 14 13 13 14 14 14 13 13 13 13 13 13 13 13 13 13 13 13 13 13 13 13 14 14 14 13
17 17 17 17 17 17 17 17 16 16 16 16 16 16 15 14 14 14 13 13 13 13 13 13 13 13 13 13 13 13 13 12 13 13 12 13 13 12 13 14 13 14 13
17 17 17 17 17 17 16 16 16 15 15 15 15 15 15 15 14 14 14 14 14 14 14 13 13 13 13 13 13 13 13 12 13 13 13 13 13 13 13 14 13 13 13
16 16 17 17 17 16 16 16 15 15 14 14 14 14 14 14 14 14 14 14 14 14 14 13 13 13 13 12 12 12 12 12 12 12 12 12 12 12 12 13 13 13 13
16 16 16 16 17 16 16 16 15 15 15 14 14 14 14 14 14 14 14 14 14 14 14 14 13 13 13 12 12 11 11 11 11 11 11 12 12 12 12 13 12 13 13
16 16 16 16 16 16 16 16 15 15 15 14 14 14 14 14 14 14 14 14 14 14 14 14 13 13 13 12 12 12 11 11 11 11 11 11 12 12 12 12 12 12 13
16 16 16 16 16 16 16 15 15 15 15 14 14 14 13 13 13 13 13 13 14 13 13 13 13 13 12 12 12 12 11 10 10 11 11 11 11 11 12 12 12 12 13
16 16 16 16 16 16 15 15 15 15 15 14 14 14 13 13 13 13 13 13 13 13 13 13 13 12 12 11 11 11 12 11 11 11 11 11 11 11 11 11 12 12 12
17 16 16 16 16 16 15 15 14 14 14 14 13 13 13 12 12 12 12 12 12 12 12 12 12 12 12 11 11 11 11 11 11 11 11 11 11 11 10 10 11 11 11
17 17 16 16 16 16 15 15 14 14 14 14 13 13 13 12 12 12 12 12 12 12 12 11 11 11 11 11 11 11 11 11 11 11 10 10 10 11 10 10 10 10 11
17 17 16 16 16 15 15 15 14 14 13 13 13 13 12 12 12 11 11 11 11 11 11 11 11 11 11 11 10 10 10 10 10 10 10 10 10 10 10 11 10 10 10
17 17 16 16 16 15 15 15 14 14 13 13 13 13 12 12 12 11 11 11 11 10 10 10 10 10 10 10 10 10 10 10 10 9 9 9 9 9 9 10 10 10 10
17 17 16 16 16 15 15 14 14 14 14 13 13 13 13 12 12 12 11 11 11 10 10 10 10 10 9 9 9 9 9 9 9 9 9 9 9 9 8 8 8 9 9
18 17 16 16 15 15 15 14 14 14 13 13 12 12 12 12 12 11 11 11 11 11 10 10 10 10 10 10 9 9 9 9 9 9 9 8 8 8 8 8 8 8 8
18 16 16 15 15 15 15 14 14 13 13 12 12 12 12 12 11 11 11 11 10 10 10 11 10 10 9 9 9 9 9 9 8 8 8 8 8 8 8 7 7 7 7
17 16 16 16 15 14 14 14 13 13 13 12 12 12 12 11 11 11 11 11 10 9 9 9 9 9 9 9 8 8 8 8 8 7 7 7 7 7 7 7 6 6 6
17 16 15 15 14 14 13 13 12 12 12 12 12 12 11 11 11 11 10 10 10 10 10 9 8 8 9 9 8 7 7 7 7 7 7 6 6 6 6 6 6 6 5
15 15 14 14 13 13 12 12 11 11 11 11 11 11 11 10 10 9 9 9 9 9 10 9 9 8 8 8 8 7 7 7 7 6 6 5 5 4 5 5 5 5 5
14 13 13 13 12 12 11 11 11 11 10 10 10 9 9 9 9 9 9 8 8 8 8 9 8 7 6 6 5 7 6 6 5 6 5 4 4 4 4 4 4 4 4
12 12 12 11 11 11 11 11 11 11 10 9 8 9 9 9 9 9 8 8 7 7 7 7 7 5 4 3 3 4 4 3 3 3 4 3 1 2 2 3 3 3 3
11 11 11 11 11 11 11 11 10 10 10 9 9 8 8 8 7 7 7 6 6 6 5 4 3 2 0 0 1 1 0 1 1 -1 -1 -1 -1 -0 -0 1 1 1 1

GFSSE_850_temp_021.txt.gz
Temp
18 17 16 16 17 17 16 16 16 16 16 16 16 16 16 15 16 15 16 15 15 15 15 15 15 15 15 15 15 15 15 15 15 16 16 16 16 17 16 15 15 14 15
18 16 17 17 17 16 16 16 16 15 16 16 15 15 15 15 15 15 15 15 14 14 15 14 14 15 15 15 15 15 15 15 15 15 16 16 15 16 16 15 15 14 15
17 16 17 17 17 16 16 16 15 15 15 15 15 15 15 15 15 15 15 15 14 14 14 14 14 15 15 14 14 15 15 15 15 15 15 15 14 15 16 16 15 15 14
17 17 15 16 16 17 17 16 16 16 16 15 15 15 15 15 14 14 15 14 14 14 14 14 14 14 14 14 14 14 14 14 14 14 15 15 15 15 15 15 15 14 14
17 16 17 17 17 17 17 17 16 16 16 16 15 15 15 14 14 14 14 14 14 14 13 13 14 13 13 13 13 14 14 14 13 14 14 14 15 14 14 15 14 14 14
17 17 18 17 17 17 17 17 16 16 16 16 15 15 15 15 14 14 14 14 14 14 14 14 13 13 13 13 13 13 13 13 13 13 14 14 14 13 14 14 14 14 15
17 17 17 17 17 17 17 17 16 16 15 15 15 15 15 15 15 15 14 14 14 14 13 13 13 13 13 13 13 13 13 13 13 13 13 13 12 13 13 13 14 14 14
17 16 17 17 17 17 17 16 16 15 15 15 14 14 14 15 14 14 14 14 14 14 14 14 14 13 13 13 13 13 13 13 13 13 13 13 12 13 13 13 13 13 14
17 16 16 16 17 16 16 16 16 15 14 14 14 14 14 14 14 14 14 14 14 14 14 14 14 14 13 13 13 13 13 13 13 13 13 13 12 13 12 13 13 13 13
17 17 17 16 16 15 15 16 15 15 15 15 15 14 14 14 14 14 13 13 13 13 13 13 13 13 13 13 13 13 13 13 12 13 13 12 12 12 12 12 12 12 12
17 16 17 17 15 15 15 15 15 15 15 14 14 14 13 13 12 12 12 13 13 13 13 13 13 13 13 13 12 12 13 12 12 13 13 12 12 12 12 12 12 12 12
17 17 17 16 15 15 15 14 14 14 14 13 13 13 14 12 12 12 12 12 12 12 12 12 12 12 12 12 12 12 12 12 11 12 12 12 12 12 12 12 12 12 12
18 18 17 15 15 15 15 15 16 15 15 14 13 12 13 12 12 12 12 12 12 11 11 11 11 11 11 10 11 11 11 11 11 12 12 11 12 12 12 12 12 12 12
19 18 17 16 15 16 16 16 15 15 15 14 14 12 12 13 12 12 12 12 12 12 11 11 11 11 10 9 10 10 10 10 11 12 11 11 12 12 12 11 11 11 11
19 19 18 16 15 15 15 15 14 14 14 14 13 13 12 12 12 12 12 11 12 12 12 12 11 11 11 10 10 9 9 10 10 10 11 10 11 12 12 12 11 11 11
19 19 18 17 15 15 15 14 14 14 14 14 13 13 14 13 11 11 11 11 12 12 12 11 11 10 10 10 10 9 9 9 10 10 10 10 10 11 11 11 11 12 12
19 19 18 17 16 14 15 14 14 14 13 14 13 12 12 13 12 12 11 11 12 11 11 11 11 11 11 10 10 10 9 9 9 9 9 10 9 9 10 10 11 11 11
19 19 18 17 16 14 15 14 14 14 13 13 13 13 12 12 12 12 11 11 11 11 11 11 11 11 11 11 11 10 10 10 10 9 9 9 9 9 9 9 10 10 10
19 18 18 17 15 15 14 14 13 13 13 14 13 13 12 11 11 12 12 11 10 10 10 10 10 10 10 11 11 11 11 10 10 10 9 8 8 9 9 8 9 9 9
16 16 16 16 15 14 14 13 13 13 13 13 13 13 11 10 10 9 10 10 10 10 10 10 10 10 10 10 10 11 11 11 10 10 10 9 9 8 8 8 8 8 9
15 16 15 15 13 13 14 14 14 14 13 13 13 11 10 10 9 9 9 9 9 9 9 9 9 9 9 9 9 10 10 10 10 9 9 9 9 8 7 7 7 8 7
14 14 14 13 12 13 13 12 12 12 12 12 11 10 10 9 10 10 9 9 8 8 8 8 8 8 8 8 9 9 9 10 10 10 10 9 9 9 8 7 7 6 7
13 13 13 12 12 11 12 12 12 12 12 12 11 10 10 9 8 8 8 8 6 6 7 7 7 7 7 7 8 8 8 9 10 10 11 9 9 8 8 8 7 6 6
12 12 12 11 11 10 11 11 11 10 10 10 10 9 8 7 7 7 7 6 5 5 5 6 6 6 6 6 7 7 8 7 6 6 8 9 8 8 7 7 7 6 5
11 11 11 11 11 10 10 10 9 9 9 9 8 7 7 7 7 7 6 6 4 4 4 4 3 3 3 3 3 4 5 5 4 3 4 6 7 6 6 5 5 5 5
11 11 11 11 11 10 9 8 8 7 7 7 7 7 7 6 6 5 5 4 3 3 3 3 1 1 2 1 1 0 1 1 1 0 0 2 3 3 3 2 2 2 3

GFSSE_850_temp_024.txt.gz
Temp
16 17 17 17 17 16 16 16 16 16 16 16 16 16 16 16 16 16 16 15 15 15 15 15 15 15 15 15 15 15 15 16 16 16 16 16 17 16 16 16 15 14 15
17 17 18 17 17 17 17 16 16 16 16 16 16 16 16 15 15 15 15 15 15 15 15 15 15 15 15 15 15 15 15 15 15 15 16 16 15 16 15 16 15 14 14
18 17 17 17 17 17 17 17 16 16 16 15 15 15 15 15 15 14 14 14 14 14 14 14 14 15 15 15 15 15 15 15 15 15 15 15 14 14 15 15 15 15 15
16 17 17 17 17 17 17 17 16 16 16 16 15 15 15 15 14 14 14 14 14 14 14 14 14 14 14 14 14 14 14 14 15 15 15 14 14 14 14 14 15 15 15
17 17 18 18 17 17 17 17 16 16 16 16 15 15 15 15 15 14 14 14 14 14 14 14 14 14 14 14 14 14 14 14 14 15 15 14 13 12 14 13 15 14 14
17 18 18 18 17 17 17 17 16 16 16 16 15 15 15 15 15 14 14 14 14 14 14 14 14 14 14 14 14 14 14 14 14 14 14 13 14 14 14 13 14 14 13
18 18 18 18 18 17 17 17 16 15 15 15 15 15 15 15 14 14 14 14 14 14 14 14 14 14 14 14 13 13 14 14 14 14 14 14 14 14 13 13 13 14 14
17 17 18 18 17 17 17 16 15 15 15 15 15 15 15 14 14 14 14 14 14 14 14 14 14 14 14 14 14 14 14 14 14 14 13 13 14 13 13 13 13 13 13
17 17 17 17 16 16 16 16 16 15 15 14 14 14 14 14 14 14 14 14 14 14 14 14 14 14 14 14 14 14 14 14 14 13 13 13 13 13 13 13 13 13 13
17 17 16 16 15 15 15 16 16 15 15 15 14 14 13 13 13 13 13 13 13 13 13 13 13 13 13 13 13 13 13 14 13 12 13 13 13 13 13 12 13 13 13
18 17 17 16 16 15 15 15 15 14 14 14 13 14 13 13 13 12 12 12 13 13 13 13 13 12 13 13 12 12 12 12 12 12 12 13 13 12 12 12 12 12 12
18 17 16 16 15 16 16 15 15 15 14 14 13 13 13 13 12 13 12 12 12 12 12 12 12 11 11 11 11 11 12 12 12 13 12 12 12 12 13 13 12 12 12
18 18 17 16 16 15 16 16 16 15 15 14 13 14 13 13 13 12 12 12 12 12 12 11 11 11 11 11 11 11 11 11 11 11 12 12 12 12 13 13 13 12 12
19 18 17 16 16 16 16 16 16 15 15 15 14 13 14 13 13 13 12 12 12 12 12 12 11 11 11 11 10 10 10 11 11 11 11 11 11 12 12 13 13 13 12
19 19 18 17 15 15 16 15 15 15 15 14 14 13 14 14 14 13 13 12 12 12 12 12 12 11 11 11 11 11 10 10 10 11 11 11 11 11 11 12 12 12 12
20 19 18 17 17 16 15 15 15 14 14 14 14 13 14 14 14 13 13 13 13 12 12 12 11 11 11 11 10 10 10 10 10 10 10 10 10 10 11 11 12 12 12
20 20 19 16 16 16 15 15 15 15 14 14 14 13 13 13 12 13 13 12 12 11 12 11 11 11 11 11 11 11 11 11 10 10 10 10 10 10 10 10 11 11 12
20 19 16 18 17 16 15 15 15 14 14 14 13 13 13 12 12 12 12 11 11 11 11 11 11 11 10 10 11 11 11 11 10 10 10 10 9 9 9 9 10 10 11
20 19 19 18 17 15 15 14 14 14 14 13 14 13 13 12 11 11 11 11 10 10 10 10 10 10 10 10 10 10 11 11 11 11 10 10 9 9 9 9 9 9 10
18 18 17 17 15 15 15 14 14 14 14 13 13 13 12 12 11 10 11 11 11 11 11 10 10 10 9 9 9 9 9 10 11 10 10 10 10 9 9 9 9 8 9
16 16 16 15 15 14 14 14 14 14 14 13 13 12 11 11 10 10 10 9 9 9 8 8 9 9 8 8 8 8 9 9 10 10 10 10 10 9 9 9 8 8 8
14 14 14 14 13 13 13 13 13 12 12 12 12 11 11 10 10 9 9 8 7 7 7 7 7 7 7 7 8 8 8 8 8 9 10 10 10 10 9 9 8 8 7
13 13 13 12 12 13 13 12 12 12 12 12 12 12 11 10 9 8 7 7 7 6 6 6 6 6 6 6 6 7 6 7 7 8 9 9 8 8 9 8 8 8 7
12 12 12 12 11 11 12 11 11 10 10 10 10 9 9 9 7 7 7 7 6 6 5 5 4 5 5 5 5 6 6 3 4 5 6 7 7 6 7 6 6 6 6
12 11 11 12 12 11 10 9 9 8 8 8 8 7 7 7 7 7 6 5 5 5 4 3 3 3 3 3 3 2 3 4 2 2 2 3 4 5 5 6 6 5 4
12 12 11 11 11 11 10 9 9 8 7 7 7 6 6 5 5 5 4 4 4 3 3 3 2 2 1 0 0 0 0 -0 0 0 1 1 0 2 4 4 3 4 4

GFSSE_850_temp_030.txt.gz
Temp
17 17 17 17 17 17 17 17 17 17 16 16 16 16 15 15 15 15 14 15 15 15 15 15 15 15 15 15 15 15 15 15 14 14 14 14 14 15 15 15 15 15 15
17 16 17 17 17 17 17 17 16 16 16 16 15 15 15 15 15 15 15 14 14 15 15 15 15 15 15 15 15 15 15 15 14 14 14 14 14 15 15 15 15 15 15
17 16 17 17 17 17 16 16 16 16 16 16 15 15 15 15 15 15 15 15 14 15 15 15 15 15 15 15 15 14 14 15 14 14 14 14 14 14 14 14 14 14 15
17 17 17 17 17 17 17 17 17 17 16 16 16 16 16 15 15 15 15 15 15 15 15 15 15 15 15 14 14 14 14 14 13 13 14 14 14 14 14 14 14 14 14
17 17 17 17 17 18 18 17 17 17 16 16 16 16 16 16 15 15 15 15 15 15 15 15 15 15 15 15 14 14 14 14 13 13 13 14 13 13 14 14 14 14 14
17 17 17 18 18 18 17 17 16 16 16 16 16 15 15 15 15 15 15 15 15 15 15 15 15 15 15 15 15 15 14 14 14 13 13 13 13 13 13 13 14 14 13
17 17 17 17 17 17 17 16 16 16 15 15 15 15 15 15 15 15 15 14 14 14 14 14 14 14 14 14 14 14 14 14 14 13 13 13 13 13 13 13 13 13 13
18 17 17 17 17 17 17 17 16 16 15 15 15 15 15 15 15 15 14 14 14 14 14 14 14 14 14 14 14 14 14 14 13 13 13 13 13 12 12 12 12 13 13
17 17 17 16 16 16 17 16 16 15 15 15 15 15 15 15 14 14 14 14 13 13 13 13 13 13 13 13 13 12 12 13 12 12 12 12 12 12 12 12 12 12 12
16 16 16 16 16 16 16 16 16 15 15 15 15 15 15 15 14 14 14 13 13 13 13 13 13 12 12 12 12 12 12 12 12 12 12 12 12 12 12 12 12 12 12
16 16 16 16 16 15 15 15 15 15 14 15 15 15 15 14 14 14 14 13 13 13 12 12 12 12 12 12 12 12 11 11 11 11 12 11 11 11 11 12 12 12 13
16 16 16 16 16 15 15 15 15 14 15 14 14 14 15 14 13 13 13 13 13 13 12 12 12 12 12 12 11 11 11 11 11 11 11 11 11 11 11 11 11 12 12
17 16 16 17 16 15 15 15 14 14 14 14 14 14 14 14 14 14 13 13 13 13 13 12 12 12 12 12 12 11 11 11 11 11 11 11 11 11 11 11 11 11 12
17 17 16 17 17 16 15 15 15 14 14 14 14 14 14 13 13 13 13 13 13 12 12 12 12 12 11 11 11 11 11 11 10 11 11 11 11 11 11 11 11 11 11
17 17 17 17 17 17 16 15 15 15 14 14 14 14 14 14 13 13 13 12 12 12 12 11 11 11 11 11 11 11 11 10 10 10 10 10 11 11 11 11 11 11 11
17 17 17 16 16 15 15 15 15 15 14 14 14 14 14 14 14 13 13 12 12 12 11 11 11 11 11 10 10 10 10 10 10 10 10 10 10 10 10 11 11 11 11
18 18 17 16 16 16 17 16 15 15 14 14 14 13 13 13 13 13 12 12 12 12 12 11 11 11 11 11 10 10 10 10 10 10 10 10 10 10 10 10 10 11 11
18 18 17 17 16 16 15 16 15 14 14 14 13 13 13 13 12 12 12 11 11 11 11 11 10 10 9 9 9 9 9 9 9 9 9 10 9 9 9 10 10 10 10
18 17 17 16 15 15 16 15 14 13 13 13 13 13 12 12 11 11 11 11 10 10 10 10 9 9 8 8 8 8 8 9 9 8 8 9 9 9 9 9 9 10 10
16 16 15 15 16 14 13 13 13 13 13 13 12 11 11 11 11 10 10 10 9 9 9 9 8 8 8 7 7 7 8 8 8 8 7 7 8 8 8 9 8 9 9
14 14 13 12 12 12 12 12 12 12 12 12 11 10 10 10 10 9 9 8 8 8 7 7 7 7 6 6 6 6 7 7 6 6 6 6 7 7 7 8 8 8 8
13 12 12 12 12 12 13 13 13 12 12 11 10 10 10 9 9 8 8 8 7 6 6 6 6 6 5 4 4 3 3 4 4 5 5 5 5 5 5 6 7 7 7
14 13 13 13 12 12 12 11 11 11 11 11 11 10 10 9 8 7 7 6 6 6 6 6 5 4 3 3 3 3 2 1 1 2 3 3 4 4 4 4 4 5 6
14 13 13 13 12 12 12 12 11 11 10 10 9 8 8 7 7 6 6 5 5 5 4 3 3 2 2 2 3 2 2 1 -0 -0 0 1 2 2 2 2 3 3 4
13 12 12 12 12 12 11 11 10 9 9 8 8 7 7 6 6 6 5 5 4 3 2 2 1 2 1 1 0 1 0 0 -0 -1 -1 -1 1 1 0 0 1 1 1
12 12 11 11 11 11 10 10 10 9 8 7 7 6 6 6 5 5 4 3 2 1 1 1 0 0 0 -1 -1 -1 -1 -1 -2 -2 -3 -2 -2 -1 -1 -1 -1 -1 -1

GFSSE_850_temp_033.txt.gz
Temp
16 16 16 16 17 17 17 17 17 17 17 17 16 16 16 16 15 15 15 15 15 15 15 15 15 15 15 15 15 15 15 15 15 15 15 15 15 15 15 16 15 14 14
17 16 16 17 17 17 17 17 17 17 16 16 15 15 15 15 15 15 15 14 14 14 14 14 15 15 15 15 15 15 14 14 14 14 14 15 15 14 14 14 15 15 14
16 16 16 17 17 17 17 17 17 16 16 16 16 16 16 15 15 15 15 14 15 15 15 15 15 15 15 15 15 14 14 14 14 14 14 14 14 14 14 14 14 15 14
16 16 16 16 17 17 16 16 16 16 16 16 16 16 15 15 15 15 15 15 15 15 15 15 15 15 15 15 14 14 14 14 13 13 14 14 14 14 14 14 14 14 15
16 16 16 16 17 17 17 17 17 16 16 16 16 15 15 15 15 15 15 15 15 15 15 15 15 15 15 14 14 14 14 14 13 13 13 13 13 13 14 14 13 13 14
16 16 17 17 17 17 17 16 16 16 16 15 15 15 15 15 15 15 15 15 15 15 15 15 15 14 14 14 14 14 14 14 13 13 13 13 13 13 13 14 14 14 13
16 17 17 17 17 17 17 17 16 16 15 15 15 15 15 15 15 15 15 15 14 14 14 14 14 14 14 14 14 13 13 13 13 13 12 13 13 13 13 13 13 13 13
17 17 17 17 17 17 17 16 16 16 16 16 16 16 15 15 15 14 14 14 14 14 14 13 13 13 13 13 13 12 12 13 13 13 12 12 12 12 12 12 12 12 13
17 17 17 17 16 16 17 17 16 16 16 16 16 15 15 15 15 15 14 14 14 14 13 13 13 13 13 12 12 12 12 12 12 12 12 12 12 11 11 11 11 12 12
17 16 16 16 16 16 16 16 16 16 16 15 15 14 14 14 14 14 14 14 14 13 13 13 13 13 12 12 12 12 11 12 11 11 12 12 12 12 11 11 11 11 12
16 16 16 16 15 15 15 15 15 15 15 15 15 14 14 14 14 14 14 13 13 13 13 12 12 12 12 12 12 12 12 12 12 12 12 12 12 12 12 11 11 11 11
16 16 16 16 16 15 15 14 14 14 14 14 14 15 15 14 14 14 13 13 13 12 12 12 12 11 11 11 11 11 11 11 11 11 11 11 12 11 11 11 11 11 11
17 16 16 16 15 15 15 15 15 15 15 15 15 14 14 14 14 13 13 13 12 12 12 11 11 11 11 11 11 11 10 10 11 11 11 11 11 11 11 11 11 11 11
16 16 16 16 15 15 15 15 15 15 15 15 15 14 14 14 13 13 13 12 12 11 11 11 11 11 11 11 11 11 10 10 10 10 10 10 10 10 10 11 11 11 11
17 16 16 16 16 16 16 16 16 15 15 14 14 14 13 13 13 13 13 12 12 12 12 12 11 11 11 11 11 11 10 10 10 10 10 10 10 10 10 10 10 10 11
17 16 16 16 16 16 16 15 15 15 15 14 14 13 13 13 13 13 12 12 12 12 11 11 11 11 11 10 10 10 10 10 9 9 9 9 9 10 10 10 10 10 10
17 17 16 16 15 16 15 14 14 14 14 14 14 13 13 13 12 12 12 11 11 11 11 11 10 10 10 10 10 10 9 9 9 9 9 9 9 9 9 9 9 10 10
17 16 16 15 14 14 13 14 13 13 13 13 13 13 12 12 11 11 11 10 10 10 10 10 9 9 9 9 9 9 9 9 8 8 8 8 8 8 9 9 9 9 9
17 16 14 14 14 14 13 13 13 13 13 13 13 12 12 11 11 10 10 10 9 9 9 9 9 8 8 8 8 8 8 8 8 8 8 7 7 7 8 8 8 9 9
17 16 15 15 15 13 13 13 13 12 12 12 12 11 11 11 10 10 10 9 9 9 8 8 7 7 7 6 6 6 6 7 6 6 5 5 6 6 6 6 7 8 8
15 16 15 13 13 12 12 12 12 12 12 11 11 11 10 10 9 9 9 8 8 7 7 6 6 6 6 6 6 6 5 4 4 5 4 4 4 4 5 5 5 6 7
13 14 13 13 13 12 12 12 11 11 11 11 10 10 10 10 9 8 7 7 7 6 6 6 6 5 5 4 3 3 3 2 3 2 3 3 3 3 3 3 4 4 5
14 13 13 13 13 12 12 12 11 11 11 11 10 10 9 8 8 7 6 6 6 5 5 4 3 3 2 2 2 2 1 1 1 1 1 1 1 2 2 2 3 3 3
13 12 12 12 12 12 12 11 11 11 10 10 9 9 8 7 6 6 5 5 4 4 4 2 1 1 1 1 1 0 0 -0 -1 -0 -1 0 1 1 0 -0 0 1 1
12 12 12 11 11 11 11 11 10 10 9 8 8 7 7 6 6 5 5 4 3 3 2 1 1 0 -1 -1 -1 -1 -1 -1 -1 -2 -3 -3 -1 1 0 -1 -1 -1 -1
12 11 11 11 11 11 10 10 10 9 8 7 7 7 6 5 5 4 4 3 3 2 1 1 0 -1 -1 -1 -2 -2 -2 -2 -2 -2 -3 -3 -3 -1 -2 -1 -2 -2 -2

GFSSE_850_temp_036.txt.gz
Temp
15 16 16 16 17 17 17 17 17 16 16 16 16 16 15 15 15 15 15 15 14 14 14 14 14 14 14 14 14 15 14 15 15 15 14 15 15 14 14 14 15 15 15
16 16 16 16 16 17 17 17 16 16 16 16 16 15 15 15 15 15 15 14 14 14 15 15 15 15 15 15 15 14 15 14 14 14 15 14 14 14 14 14 14 15 14
16 16 16 16 16 17 17 16 16 16 16 16 15 16 16 16 15 15 15 15 15 15 15 15 15 15 15 15 14 14 14 14 14 14 14 14 14 13 14 14 14 14 14
16 15 15 16 16 16 16 16 16 16 16 16 16 16 16 15 15 15 15 15 15 14 15 15 15 15 15 15 14 14 14 14 14 13 13 14 13 13 13 14 13 13 13
15 15 15 16 16 16 17 17 17 16 16 16 16 16 15 15 15 15 15 15 15 15 15 15 14 14 14 14 14 14 14 13 13 13 13 13 13 13 13 12 13 13 13
15 15 15 16 16 17 17 17 16 16 16 16 16 15 15 16 15 15 15 15 14 14 14 14 14 14 14 14 14 14 14 14 14 13 13 13 13 13 13 12 12 12 12
15 15 16 16 17 17 17 16 16 16 16 15 15 15 15 15 15 15 15 15 14 14 14 14 13 13 13 13 13 13 13 13 13 13 12 12 12 13 13 13 12 12 12
15 16 17 17 17 16 16 16 16 16 15 15 15 15 15 15 15 15 14 14 14 14 13 13 13 13 12 12 12 12 12 12 12 12 12 12 12 12 12 12 12 12 12
16 17 17 16 16 16 16 16 16 16 15 15 15 15 15 15 14 14 14 14 14 14 13 13 13 13 12 12 12 12 12 12 12 12 12 11 12 12 12 12 12 12 12
16 16 17 17 17 16 16 16 16 15 15 15 15 15 14 14 14 14 14 14 13 13 13 13 12 12 12 12 12 12 12 11 12 12 12 12 12 12 11 12 12 12 12
16 16 16 16 16 16 16 16 15 15 15 15 15 14 14 14 14 13 13 13 13 13 12 12 12 12 11 11 11 12 12 12 11 11 11 11 11 11 11 11 11 11 11
16 16 16 15 16 16 15 15 15 15 15 15 14 14 14 14 13 13 13 13 12 12 12 11 11 11 11 11 11 11 11 11 11 12 11 11 11 10 11 11 11 11 11
16 16 16 15 15 15 16 15 15 15 15 14 14 14 14 14 13 13 13 13 12 12 12 12 11 11 11 11 11 11 11 11 11 11 11 11 11 10 10 10 10 10 11
16 16 16 16 15 15 15 15 15 15 15 14 14 14 14 14 13 13 13 12 12 12 12 11 11 11 11 11 11 11 10 10 10 10 10 10 10 11 10 10 10 10 10
17 16 16 16 15 14 14 14 14 14 14 14 14 13 13 13 13 13 12 12 11 11 11 11 11 11 11 10 10 10 10 10 10 9 9 9 9 10 10 10 10 10 9
17 16 16 15 14 14 14 14 14 14 13 13 13 13 12 12 12 12 12 11 11 11 11 11 10 10 10 10 10 9 9 9 9 9 9 9 9 9 9 9 10 10 10
17 16 15 15 14 14 13 13 13 14 14 13 13 12 12 12 11 11 11 10 10 10 10 10 9 9 9 9 9 9 9 9 9 9 8 8 9 9 9 9 9 9 10
17 16 15 14 13 12 12 12 12 13 13 13 13 12 12 11 11 11 11 10 10 9 9 9 9 8 8 8 8 8 8 8 8 8 8 7 7 7 7 8 8 8 9
16 16 15 13 12 12 11 11 11 12 13 12 12 12 12 11 11 10 10 9 9 9 8 8 8 7 7 7 7 7 7 7 7 7 7 6 5 5 5 6 6 7 8
16 15 13 12 11 11 10 10 11 12 12 12 12 11 11 10 10 10 9 9 9 8 8 7 7 7 6 6 5 5 5 5 6 5 5 5 4 4 4 4 5 5 6
12 13 12 12 12 9 10 11 11 11 11 11 11 11 10 10 10 9 9 8 7 7 7 6 6 6 6 5 4 5 4 3 3 4 3 3 4 4 3 4 4 4 5
12 13 13 12 11 11 11 12 12 12 12 11 11 10 10 9 9 8 7 7 6 6 6 6 5 5 4 3 2 2 2 2 2 2 2 1 1 1 2 2 2 3 3
13 13 13 13 13 13 13 12 12 11 11 10 10 9 9 8 7 7 6 6 5 5 4 4 4 3 3 2 1 1 0 0 -0 0 1 1 0 1 1 0 1 1 1
13 13 13 12 12 12 11 11 11 10 10 9 9 8 8 7 6 6 5 5 4 4 4 3 2 1 1 -0 -0 -1 -1 -1 -2 -2 -2 -2 0 1 0 -1 -1 -1 -0
12 12 12 12 11 11 10 10 10 9 9 8 7 7 6 6 5 5 4 4 3 3 3 2 1 0 -1 -1 -1 -1 -2 -2 -2 -3 -3 -2 -3 -2 -1 -1 -1 -2 -2
12 11 11 10 10 10 10 9 9 9 8 7 6 6 5 5 4 4 4 3 3 2 2 1 -0 -1 -1 -2 -2 -2 -2 -3 -3 -4 -3 -3 -3 -3 -3 -3 -2 -2 -3

GFSSE_850_temp_039.txt.gz
Temp
15 15 15 15 16 16 16 16 16 16 16 16 15 15 15 15 15 15 15 15 15 15 15 14 14 14 14 15 15 15 15 15 15 15 14 14 14 14 14 14 14 15 15
16 16 15 15 16 16 16 16 16 16 15 15 15 15 15 15 15 15 15 15 15 15 15 15 15 14 15 15 14 15 15 15 15 14 14 14 14 13 14 14 14 14 14
16 15 15 15 16 16 16 16 16 15 15 15 15 15 15 15 15 15 15 15 15 15 15 15 15 15 14 14 14 14 14 14 14 14 14 13 13 13 14 13 13 13 14
16 15 15 15 16 16 16 16 16 16 16 16 16 15 15 15 15 15 15 14 14 15 14 14 14 14 14 14 14 14 14 14 14 13 13 13 13 13 13 13 13 13 13
16 15 15 15 15 15 15 16 16 16 16 16 16 16 15 15 15 15 14 14 14 14 14 14 14 14 14 14 13 13 14 14 14 14 13 13 13 12 13 13 13 13 13
15 15 15 15 15 15 16 16 16 16 16 16 16 15 15 15 15 14 14 14 14 14 14 14 14 13 13 13 13 13 13 13 13 13 13 13 12 12 12 12 12 13 12
15 15 15 15 15 16 16 16 15 16 16 15 15 15 15 14 14 14 14 14 14 13 13 13 13 13 13 13 13 12 13 13 13 12 12 12 12 12 12 12 12 12 12
15 15 15 15 16 16 16 16 16 16 15 15 15 15 15 14 14 14 14 14 13 13 13 13 13 12 12 13 12 12 12 12 12 12 12 12 12 12 12 12 12 12 12
15 16 16 16 16 16 16 16 15 15 15 15 15 14 14 14 14 14 14 14 13 13 13 13 13 12 12 12 13 13 13 13 12 12 12 12 12 12 12 12 12 12 12
16 16 16 16 16 16 15 15 15 15 15 15 14 14 14 14 14 14 14 14 13 13 13 13 12 12 12 12 13 13 13 13 13 13 12 12 12 12 12 12 12 12 12
16 16 16 16 16 15 15 15 15 15 15 15 14 14 14 14 14 14 13 13 13 13 13 12 12 12 12 12 12 12 12 12 12 12 12 12 12 12 12 12 12 12 11
16 16 16 16 15 15 15 15 15 15 14 14 14 14 14 14 13 13 13 13 12 12 12 12 12 12 11 11 11 11 11 11 11 11 11 11 11 11 11 11 11 11 12
16 16 16 15 15 15 15 14 14 14 14 14 14 14 14 13 13 13 12 12 12 12 12 11 11 11 11 11 11 10 10 11 11 11 11 11 11 11 11 10 10 10 11
16 15 15 15 14 14 14 14 13 14 13 13 13 13 13 12 12 12 12 12 12 12 12 11 11 11 11 10 10 10 10 10 10 10 10 10 10 10 10 10 10 10 10
16 15 15 14 14 14 13 13 13 13 13 12 12 12 12 12 12 12 12 12 11 11 11 11 11 10 10 10 10 10 9 9 9 9 10 10 10 10 9 9 10 10 10
16 15 15 14 14 13 13 13 13 13 13 12 13 13 13 12 12 11 11 11 11 11 11 10 10 10 10 9 9 9 9 9 9 9 9 9 9 9 9 9 9 9 9
16 15 14 14 13 13 13 12 14 14 13 13 13 13 13 12 11 11 11 11 10 10 9 9 9 8 8 8 8 8 8 8 8 8 8 8 8 8 8 9 9 9 9
15 15 14 13 12 12 12 12 12 11 12 12 12 12 12 11 11 10 10 9 9 9 9 8 8 8 8 8 8 8 8 7 7 7 7 7 6 6 7 7 7 8 8
15 15 14 12 12 11 12 12 10 10 10 11 11 11 11 10 10 10 9 9 9 8 8 7 7 7 7 7 7 7 7 7 7 6 6 5 5 5 5 5 5 6 6
15 15 13 12 11 11 11 11 10 10 11 11 11 11 11 10 10 9 9 8 8 7 6 6 6 6 6 5 5 5 5 5 5 5 4 4 4 4 4 4 5 5 5
12 12 13 12 11 12 12 10 11 11 11 11 11 10 10 9 9 8 8 7 7 6 6 6 5 5 5 5 4 2 2 4 3 3 3 3 3 2 2 2 3 3 4
13 12 12 12 13 12 12 11 11 11 11 11 10 9 9 9 8 7 7 6 6 5 5 5 5 4 4 3 2 1 3 3 1 1 2 1 1 1 1 1 1 1 2
13 13 13 13 12 12 12 12 11 11 10 10 9 9 8 7 7 6 6 5 5 5 4 4 4 3 2 1 1 -0 1 2 0 -0 -0 -0 -0 -0 0 0 0 -0 0
12 12 12 12 12 11 11 11 10 10 9 9 8 8 7 6 6 5 5 4 4 3 3 3 3 2 2 -0 -1 -1 -1 -2 -2 -1 -1 -2 -2 -2 -2 -0 -1 -1 -1
12 12 12 11 11 11 10 10 9 9 8 8 7 6 6 5 5 4 4 3 3 2 2 2 2 1 -0 -2 -2 -2 -2 -2 -3 -3 -3 -2 -2 -3 -3 -3 -2 -2 -2
12 12 11 11 11 10 10 9 9 8 7 6 6 5 5 4 4 3 3 2 2 2 1 1 1 0 -0 -1 -2 -2 -3 -3 -3 -3 -4 -3 -3 -4 -4 -4 -3 -3 -3

GFSSE_850_temp_042.txt.gz
Temp
15 15 15 15 16 16 16 16 16 16 16 16 16 16 16 16 15 15 15 15 15 15 15 15 15 15 15 15 15 15 15 15 15 14 14 14 14 14 14 14 14 14 14
15 15 15 15 16 16 16 16 16 16 16 16 16 15 15 15 15 15 15 15 15 15 15 15 15 15 15 15 15 15 14 14 14 14 14 14 14 14 14 14 14 14 14
14 14 15 15 15 15 16 16 15 15 15 15 15 15 15 15 15 15 15 15 15 15 15 15 15 14 14 14 14 14 14 14 14 14 14 15 13 13 13 13 14 14 14
14 14 15 15 15 15 15 15 15 15 15 15 15 15 15 15 15 15 15 15 15 15 15 14 14 14 14 14 14 14 14 14 14 14 14 14 14 13 13 13 13 13 13
14 14 15 15 15 15 15 15 15 15 15 15 15 15 15 15 14 14 14 14 14 14 14 14 14 14 14 14 14 14 14 14 14 13 13 12 14 12 13 13 13 13 13
14 14 15 15 15 15 15 15 15 15 15 15 15 15 15 15 14 14 14 14 14 14 13 13 13 13 13 13 13 13 14 14 13 13 13 12 12 12 12 12 13 13 13
14 14 15 15 14 15 15 15 15 15 15 15 15 15 15 14 14 14 14 14 14 13 14 13 13 13 13 13 13 13 13 14 13 13 13 12 12 12 12 12 12 12 12
16 15 15 14 14 15 15 15 15 15 14 15 15 14 14 14 14 14 13 13 13 13 13 13 13 13 13 13 13 13 13 13 12 13 13 13 12 12 12 12 12 12 12
15 14 13 13 14 15 15 15 14 14 14 14 14 14 14 14 14 13 13 13 13 13 12 12 12 13 13 13 13 13 13 13 12 12 12 12 13 13 13 13 12 12 12
14 13 13 12 12 14 15 14 14 14 14 14 14 14 14 14 14 13 13 13 13 13 13 12 12 12 12 12 13 13 13 12 12 12 12 12 12 12 12 12 12 12 12
14 15 13 12 13 12 12 14 14 14 14 14 14 14 14 13 13 13 13 13 13 13 12 12 12 12 12 12 12 12 12 11 11 12 12 12 12 12 12 12 12 12 11
14 13 13 14 14 13 12 14 13 14 13 12 12 13 12 13 12 11 13 13 13 12 12 12 12 12 11 11 11 11 11 10 11 11 11 11 11 12 12 12 11 11 11
14 13 14 15 14 14 13 13 12 12 12 13 13 12 12 12 12 11 11 11 12 12 11 11 11 10 11 11 10 11 10 10 10 10 10 11 11 11 11 11 11 11 11
14 14 15 15 14 14 13 12 13 12 13 12 12 12 12 11 12 11 11 12 12 11 11 11 10 11 11 11 10 10 10 9 9 9 9 9 10 10 10 10 11 11 11
14 14 14 14 14 14 13 13 13 12 12 12 12 12 12 12 12 12 12 11 11 11 10 10 9 9 9 9 8 8 8 8 8 8 8 8 9 9 10 10 10 10 10
14 13 13 14 14 13 13 13 13 13 13 13 13 13 13 13 12 11 11 11 10 10 9 8 9 9 8 8 8 8 7 7 7 7 7 7 7 9 9 9 9 9 9
14 12 13 13 13 13 13 12 13 13 12 12 11 12 12 12 11 10 10 10 9 9 9 9 9 8 8 8 7 7 7 7 7 6 6 6 6 6 8 8 8 8 8
14 12 12 13 13 13 12 13 12 13 12 12 11 12 11 11 11 10 9 9 9 9 8 7 7 7 7 7 7 7 7 7 6 5 5 4 4 5 5 6 7 7 7
14 12 13 13 13 12 12 12 11 10 10 11 11 11 11 10 10 9 9 8 8 7 6 6 6 6 6 6 6 6 6 6 6 6 5 4 3 3 4 3 6 6 6
14 13 14 13 13 12 11 11 11 10 11 11 11 11 10 10 9 9 8 8 7 6 6 6 5 5 5 5 4 5 5 5 5 5 4 4 4 2 2 2 2 3 3
14 13 12 12 12 11 11 11 11 11 11 11 10 10 9 9 8 8 7 6 6 5 4 4 4 4 4 4 3 5 5 5 4 4 4 3 3 2 1 1 1 1 2
11 11 11 11 12 12 11 11 10 11 10 10 10 9 9 8 7 6 6 5 4 5 4 3 3 3 4 4 2 3 5 5 5 4 3 2 2 1 1 1 0 0 0
11 11 11 11 12 11 11 11 11 11 10 10 9 9 8 7 6 6 6 6 5 4 4 3 3 2 3 3 3 2 3 4 3 3 2 2 1 1 1 1 0 -0 -1
12 12 12 11 11 12 11 10 10 11 10 9 8 7 6 7 6 6 5 5 4 3 3 3 2 1 2 2 2 2 1 1 -0 -0 0 1 1 1 0 -0 -0 -1 -1
12 11 12 12 10 11 11 10 9 9 8 8 7 6 6 5 5 5 4 3 3 2 2 2 1 1 1 1 1 0 -0 -0 -1 -1 -1 -0 0 0 -0 -1 -1 -1 -1
12 12 10 10 11 10 9 10 9 8 7 7 6 6 6 5 4 4 3 2 2 2 1 1 1 -0 -0 -1 -1 -1 -2 -2 -1 -2 -2 -2 -1 -1 -1 -1 -1 -2 -1

GFSSE_850_temp_045.txt.gz
Temp
17 16 16 16 16 17 16 16 16 16 16 16 16 16 15 15 15 15 15 15 15 15 15 15 15 15 15 15 15 15 15 15 15 15 14 14 14 14 14 14 14 13 14
16 16 16 16 16 16 16 16 16 16 16 16 15 15 15 15 15 15 15 15 15 15 15 15 15 15 15 15 15 15 15 15 15 14 14 13 14 14 14 14 14 14 14
15 16 16 16 16 16 16 16 16 16 15 15 15 15 15 15 15 15 15 15 15 15 15 15 15 15 15 15 15 15 15 15 15 14 15 14 15 14 13 13 14 14 14
15 16 15 16 16 16 16 15 15 15 15 15 15 15 15 15 15 15 15 15 15 15 14 14 14 14 14 14 14 14 14 15 14 15 15 16 14 14 13 13 13 13 13
14 15 15 15 15 15 15 15 15 15 15 15 15 15 15 15 15 15 15 15 14 14 14 14 14 14 14 14 14 14 14 14 14 15 15 14 13 13 13 13 13 13 13
15 15 16 15 15 15 15 15 14 14 14 15 15 15 15 15 15 15 14 14 14 14 14 14 14 14 14 14 14 14 14 14 14 15 14 13 13 12 13 13 13 12 13
15 15 15 15 15 14 14 14 14 14 14 14 14 14 14 14 14 14 14 14 14 14 13 13 13 14 14 14 14 14 14 14 14 15 15 13 13 13 13 13 13 12 12
15 14 14 15 14 14 14 14 14 14 14 14 14 14 14 14 14 14 14 13 13 13 13 13 13 13 13 13 13 13 13 13 14 14 14 12 13 13 13 13 13 13 12
14 14 14 14 14 14 14 14 14 14 14 14 14 14 14 14 14 13 13 13 13 13 13 13 13 13 13 13 13 13 13 13 13 14 14 12 12 12 12 12 12 12 12
14 14 14 13 12 14 14 14 14 14 14 14 13 13 13 13 13 13 13 13 13 13 13 13 12 13 13 13 13 13 13 13 13 14 14 13 12 12 12 12 12 12 12
15 14 14 14 13 12 13 14 14 14 14 13 13 13 12 12 12 12 13 12 13 12 13 12 12 12 12 12 12 12 12 12 12 13 13 12 12 12 12 12 12 12 11
15 14 14 13 13 13 13 14 12 13 12 12 12 12 13 12 12 12 13 13 12 13 12 12 12 12 12 12 12 12 12 11 12 12 12 11 11 11 11 11 11 12 11
15 14 13 12 12 13 13 13 13 12 12 12 12 12 12 12 12 13 13 13 12 12 12 12 12 12 11 11 10 10 10 10 11 11 11 10 10 11 11 11 11 11 11
15 14 13 12 12 12 12 14 13 14 13 13 12 12 12 12 12 12 12 12 12 12 11 11 11 10 10 10 9 9 9 9 10 10 10 10 9 9 10 10 10 10 10
15 14 13 12 13 12 13 13 13 13 13 13 12 12 12 12 12 12 11 11 11 11 11 10 10 10 10 10 9 9 9 9 9 9 9 9 9 8 8 9 9 9 9
16 14 13 13 12 12 12 12 11 12 11 11 12 13 12 12 12 11 11 11 11 9 9 9 9 9 9 9 9 9 9 9 9 8 8 8 8 7 7 8 8 8 9
16 14 13 12 12 11 11 11 11 12 12 11 12 12 13 11 10 10 10 9 9 9 9 9 8 8 8 9 9 9 9 9 8 8 7 7 7 7 6 6 6 7 7
16 14 13 12 11 11 12 13 11 11 11 11 11 11 12 11 11 10 10 9 9 8 7 7 7 7 7 7 8 8 8 8 8 7 8 7 6 5 5 5 4 6 6
15 14 12 11 11 13 13 13 13 12 11 11 10 11 10 11 10 10 9 9 8 7 7 6 6 6 6 6 7 7 6 7 7 7 7 6 5 5 4 4 3 4 3
15 14 12 11 12 13 13 12 11 11 10 10 10 10 10 10 10 8 7 7 7 7 6 5 5 5 6 6 6 6 6 6 6 6 6 6 5 5 4 3 3 3 3
15 13 12 11 13 12 11 12 10 10 11 10 9 10 9 8 8 8 7 7 6 6 6 5 5 5 5 5 5 5 5 6 7 6 6 5 5 4 3 3 3 3 2
12 11 11 11 11 11 11 11 11 10 10 10 8 8 8 9 8 7 7 6 6 5 5 5 4 4 4 4 4 4 5 5 5 6 5 4 4 3 3 3 2 2 2
11 11 11 12 12 12 12 12 11 10 10 9 9 8 7 8 7 7 6 5 5 5 5 4 4 4 4 3 4 4 4 4 4 4 3 3 3 2 2 2 2 1 1
12 12 14 13 13 12 12 11 11 11 11 10 10 9 8 6 6 6 5 5 4 4 4 4 4 3 3 3 3 3 2 2 2 1 2 2 1 2 2 1 0 1 0
14 14 13 13 13 11 11 11 11 11 10 10 9 8 7 7 6 5 5 4 4 4 4 3 3 2 2 1 1 1 1 1 0 0 1 1 0 1 1 0 0 0 0
13 13 13 12 12 11 10 10 10 10 9 9 8 8 8 7 7 6 5 5 4 3 3 3 2 2 1 1 0 -0 -1 -1 -0 -1 -1 -1 -1 -1 0 -0 0 -0 -0

GFSSE_850_temp_048.txt.gz
Temp
18 18 17 17 17 16 16 16 16 17 16 16 16 15 15 15 15 15 15 15 15 15 15 15 16 16 16 16 16 15 15 15 15 15 14 14 14 15 15 14 13 14 14
17 18 17 17 16 16 16 16 16 16 16 16 15 15 15 15 15 15 15 15 15 15 16 15 15 15 15 15 15 15 15 15 15 14 13 13 13 14 15 14 14 14 13
17 17 17 16 16 16 16 16 16 16 16 15 15 15 15 14 14 15 15 15 15 15 15 15 15 15 15 15 15 15 15 15 15 14 13 12 12 13 14 14 13 13 13
17 17 16 15 15 16 16 16 15 15 15 15 14 15 14 14 15 15 15 15 15 15 15 15 15 15 14 14 14 14 15 15 15 15 13 12 12 13 13 13 13 13 13
14 16 16 15 15 15 15 15 15 15 15 15 15 15 14 15 15 15 15 15 15 15 15 15 14 14 14 14 14 14 14 15 15 15 14 14 13 13 13 13 13 13 13
14 15 15 15 15 15 15 15 15 14 15 15 15 15 15 15 15 15 15 14 14 14 14 14 14 14 14 14 14 14 14 15 15 14 14 14 14 13 13 12 12 13 13
15 14 15 14 14 14 15 14 14 15 15 15 15 15 15 14 14 14 14 14 14 14 14 14 14 14 14 14 14 14 14 14 14 14 14 14 13 13 13 12 12 12 12
13 13 14 14 14 14 14 14 14 14 14 14 15 14 14 14 14 14 14 14 14 14 14 14 13 13 13 13 13 14 14 13 14 14 13 13 13 12 12 12 12 12 12
13 14 14 14 14 14 14 14 14 14 14 15 15 14 14 14 14 14 14 14 13 13 13 13 13 13 13 13 13 13 13 13 13 13 13 13 13 12 12 12 12 12 12
14 14 15 14 14 14 14 14 14 14 14 14 14 13 13 13 13 14 13 13 13 13 13 13 13 13 13 12 12 12 13 12 13 13 12 12 12 12 12 11 11 12 11
13 14 14 14 14 15 14 14 14 14 14 14 13 13 13 13 12 13 13 13 13 13 13 13 12 12 12 12 12 12 12 12 12 12 12 12 12 11 11 11 11 11 11
14 14 13 13 14 14 14 14 13 13 13 13 13 13 13 12 12 13 13 12 13 13 12 12 12 12 11 11 11 11 11 11 11 11 11 11 11 10 10 10 10 10 11
14 14 13 13 13 13 13 13 13 12 12 12 13 12 12 13 12 13 12 12 12 12 12 11 11 11 11 11 10 10 10 10 10 10 10 10 10 10 9 9 9 10 10
14 13 13 13 13 13 13 13 13 13 13 13 12 12 13 13 13 13 12 12 12 12 11 11 11 10 10 10 10 10 9 9 9 9 9 9 9 9 8 8 8 9 9
14 13 14 13 13 14 13 13 13 13 13 12 12 12 13 12 12 12 12 12 11 11 11 11 10 10 10 10 9 9 9 9 9 9 9 8 8 8 8 7 7 7 7
15 13 13 13 13 13 13 13 13 13 12 13 13 13 12 12 12 11 11 11 11 11 11 10 10 9 9 9 9 9 9 9 8 8 8 8 7 7 7 6 6 5 6
15 13 13 12 12 13 13 13 13 13 13 13 13 13 13 12 12 12 11 12 11 10 10 9 9 9 8 8 8 8 8 8 8 8 8 8 7 7 6 6 5 4 4
15 13 13 12 12 12 13 13 13 14 14 14 12 12 12 11 11 11 11 11 10 9 8 8 8 8 7 7 6 7 7 7 7 7 7 7 7 6 5 5 4 4 4
15 14 13 12 12 12 13 13 14 13 14 13 13 12 11 11 11 10 10 10 9 8 8 7 7 6 6 5 6 6 6 6 6 6 6 6 6 6 5 4 4 3 3
15 14 12 12 11 12 13 13 12 12 12 13 12 11 12 11 10 8 8 8 7 7 6 6 5 5 5 5 5 5 5 5 5 6 6 6 6 5 5 4 3 3 3
15 14 13 12 11 12 12 11 12 12 12 11 11 11 10 8 9 8 7 7 7 6 6 5 5 4 4 4 4 4 4 4 5 5 5 5 4 4 4 3 3 2 2
15 14 13 11 12 12 11 10 11 11 11 10 9 10 8 8 8 7 7 7 6 6 5 5 5 4 4 4 4 3 3 3 4 4 4 3 3 3 2 2 2 2 1
14 13 12 11 11 12 12 11 11 11 10 10 9 9 8 8 7 7 6 6 6 5 5 4 4 4 4 3 3 3 2 2 1 2 2 3 2 2 1 1 1 1 1
13 12 12 12 12 12 12 12 11 11 11 10 10 9 9 8 7 7 6 6 5 4 4 4 4 3 3 2 2 2 2 1 1 0 1 1 1 1 1 1 0 0 0
12 13 12 13 13 13 12 12 11 11 11 11 10 9 8 8 7 6 6 5 5 4 4 3 3 3 2 2 2 1 1 0 1 -0 -1 -1 -0 -0 -0 -0 -0 -0 -0
13 13 13 13 13 12 12 12 11 11 11 10 9 8 8 8 7 7 6 5 5 4 3 3 3 2 2 2 1 1 0 -0 -1 -1 -1 -1 -2 -1 -1 -1 -1 -1 -1